This is the latest recevied weather packets stored in our database for station/object N7IGG. If no packets are shown the sender has not sent any weather packets the latest 10 day(s).
| Time | Temp. | Humidity | Pressure | Rain* | Wind** | Luminosity | Snow |
|---|---|---|---|---|---|---|---|
| 1777514727 | 17.78° C | 62% | 1022.1 hPa | 0 mm | - | 99 W/m² | - |
| 1777514425 | 17.78° C | 61% | 1022.1 hPa | 0 mm | - | 113 W/m² | - |
| 1777514121 | 17.78° C | 60% | 1022.2 hPa | 0 mm | - | 127 W/m² | - |
| 1777513818 | 17.78° C | 58% | 1022.3 hPa | 0 mm | - | 131 W/m² | - |
| 1777513516 | 17.78° C | 57% | 1022 hPa | 0 mm | - | 146 W/m² | - |
| 1777513212 | 17.78° C | 57% | 1022.3 hPa | 0 mm | - | 158 W/m² | - |
| 1777512908 | 17.78° C | 57% | 1022.1 hPa | 0 mm | - | 164 W/m² | - |
| 1777512605 | 17.78° C | 58% | 1022.3 hPa | 0 mm | - | 172 W/m² | - |
| 1777512302 | 17.78° C | 56% | 1022.2 hPa | 0 mm | - | 201 W/m² | - |
| 1777511998 | 17.78° C | 57% | 1022.2 hPa | 0 mm | - | 221 W/m² | - |
| 1777511696 | 18.33° C | 56% | 1022.3 hPa | 0 mm | - | 239 W/m² | - |
| 1777511394 | 18.33° C | 57% | 1022.4 hPa | 0 mm | - | 234 W/m² | - |
| 1777511090 | 18.33° C | 56% | 1022.6 hPa | 0 mm | - | 187 W/m² | - |
| 1777510785 | 18.33° C | 55% | 1022.5 hPa | 0 mm | - | 294 W/m² | - |
| 1777510483 | 18.33° C | 55% | 1022.3 hPa | 0 mm | - | 284 W/m² | - |
| 1777510178 | 18.89° C | 54% | 1022.5 hPa | 0 mm | - | 305 W/m² | - |
| 1777509875 | 18.33° C | 54% | 1022.6 hPa | 0 mm | - | 317 W/m² | - |
| 1777509570 | 18.33° C | 53% | 1022.6 hPa | 0 mm | - | 330 W/m² | - |
| 1777509268 | 18.33° C | 54% | 1022.4 hPa | 0 mm | - | 291 W/m² | - |
| 1777508965 | 18.33° C | 55% | 1022.5 hPa | 0 mm | - | 314 W/m² | - |
| 1777508662 | 17.78° C | 60% | 1022.5 hPa | 0 mm | - | 388 W/m² | - |
| 1777508359 | 18.33° C | 59% | 1022.4 hPa | 0 mm | - | 404 W/m² | - |
| 1777508056 | 18.33° C | 59% | 1022.5 hPa | 0 mm | - | 412 W/m² | - |
| 1777507753 | 17.78° C | 60% | 1022.7 hPa | 0 mm | - | 424 W/m² | - |
| 1777507450 | 18.33° C | 59% | 1022.7 hPa | 0 mm | - | 411 W/m² | - |
* Rain latest hour (hover to see other rain measurements)
** Current wind speed in m/s (hover to see current wind gust speed)